Regional Weather Roundup
Issued by NWS Bismarck, ND

Current Version | Previous Version | Text Only | Print | Product List | Glossary On
Versions: 1 2 3 4 5 6 7 8 9 10 11 12 13 14 15 16 17 18 19 20 21 22 23 24 25 26 27 28 29 30 31 32 33 34 35 36 37 38 39 40 41 42 43 44 45 46 47 48 49 50
000
ASUS43 KBIS 271310
RWRBIS

NWR BROADCAST TEXT
NATIONAL WEATHER SERVICE BISMARCK ND
800 AM CDT SUN MAY 27 2018

NOTE: "FAIR" INDICATES FEW OR NO CLOUDS BELOW 12,000 FEET WITH NO
SIGNIFICANT WEATHER AND/OR OBSTRUCTIONS TO VISIBILITY.


CITY           SKY/WX    TMP DP  RH WIND       PRES   REMARKS
WILLISTON      CLOUDY    64  59  83 W7        29.87R
MINOT          CLOUDY    63  60  90 N13       29.82R
MINOT AFB      CLOUDY    63  62  98 NE10      29.82R
BISMARCK       PTSUNNY   68  58  70 E18G31    29.76F
DICKINSON      CLOUDY    61  57  87 E6        29.83R
GARRISON         N/A     62  59  90 NE7       29.78R
HETTINGER ARPT CLOUDY    62  55  77 NE17      29.83R
JAMESTOWN      LGT RAIN  64  61  90 NE9       29.83F
CARRINGTON     FAIR      64  61  88 NE15      29.85F
HAZEN          FAIR      64  61  88 N7        29.81R
LINTON         FAIR     N/A N/A N/A NE20G28   29.80F
MANDAN         FAIR      66  61  82 E21G28    29.76F
STANLEY          N/A     61  61 100 NE9       29.88R FOG
TIOGA          CLOUDY    61  61 100 NE12      29.86F
WATFORD CITY   FAIR      61  61 100 N8        29.85R
$$

CITY           SKY/WX    TMP DP  RH WIND       PRES   REMARKS
GRAND FORKS    RAIN      64  62  93 W25G36    29.90R
GRAND FORKS AF LGT RAIN  66  64  95 NW20G30   29.91R
DEVILS LAKE    LGT RAIN  62  60  93 NE20G26   29.74F
FARGO          LGT RAIN  67  59  75 SE8       29.81F
CANDO          FAIR      63  63 100 NE18G25   29.76F FOG
CAVALIER       LGT RAIN  63  63 100 N9        29.89R
GRAFTON        PTSUNNY   63  63 100 N16       29.92R FOG
GWINNER          N/A     68  61  77 E7        29.79F
LANGDON        LGT RAIN  61  61 100 NE7       29.92S
ROLLA          PTSUNNY   61  61 100 N13       29.83R FOG
WALHALLA       LGT RAIN  63  63 100 W6        29.91F
$$

CITY           SKY/WX    TMP DP  RH WIND       PRES   REMARKS
ABERDEEN       PTSUNNY   77  56  48 E9        29.77R
MOBRIDGE       CLOUDY    73  60  63 N13G22    29.72F
BUFFALO          N/A     62  53  72 NE14      29.77R
RAPID CITY     PTSUNNY   65  55  70 N28G46    29.82S
GLASGOW        PTSUNNY   63  57  81 NW15      29.89R
SIDNEY         CLOUDY    62  59  90 NW9       29.89R
WOLF POINT     PTSUNNY   63  59  87 CALM      29.86R
GLENDIVE       CLOUDY    61  58  90 E3        29.92R
MILES CITY     CLOUDY    63  57  81 NW13      29.83F
BAKER          CLOUDY    61  55  81 E10       29.85R
$$

CITY           SKY/WX    TMP DP  RH WIND       PRES   REMARKS
BILLINGS       CLOUDY    56  50  80 SW13      29.99R
GREAT FALLS    MOSUNNY   58  51  78 SW5       30.04S
REGINA         PTSUNNY   61  57  88 N14G21    29.89R
ESTEVAN        PTSUNNY   63  59  88 SE10      29.87R
$$




USA.gov is the U.S. government's official web portal to all federal, state and local government web resources and services.